| time (UTC) | temp F | wind direction | speed MPH | gust MPH | rain 1hr in | rain 24hr in | rain mn in | humidity % | barometer mb |
| 20260505114030 | 48 | 0 | 0.0 | 1.0 | 0.02 | 0.15 | 0.09 | 96 | 1013.5 |
| 20260505113530 | 48 | 294 | 0.0 | 1.0 | 0.02 | 0.15 | 0.09 | 96 | 1013.5 |
| 20260505113038 | 48 | 0 | 0.0 | 1.0 | 0.02 | 0.15 | 0.09 | 96 | 1013.5 |
| 20260505112529 | 48 | 0 | 0.0 | 2.0 | 0.01 | 0.14 | 0.08 | 96 | 1013.6 |
| 20260505112030 | 48 | 0 | 0.0 | 2.0 | 0.01 | 0.14 | 0.08 | 96 | 1013.7 |
| 20260505111538 | 47 | 0 | 0.0 | 1.0 | 0.01 | 0.14 | 0.08 | 96 | 1013.7 |
| 20260505111033 | 47 | 0 | 0.0 | 1.0 | 0.02 | 0.14 | 0.08 | 96 | 1013.6 |
| 20260505110530 | 47 | 271 | 0.0 | 1.0 | 0.02 | 0.14 | 0.08 | 96 | 1013.6 |
| 20260505110105 | 47 | 0 | 0.0 | 1.0 | 0.02 | 0.14 | 0.08 | 96 | 1013.6 |
| 20260505102030 | 47 | 268 | 0.0 | 3.0 | 0.02 | 0.13 | 0.07 | 96 | 1013.7 |
| 20260505101536 | 47 | 278 | 0.0 | 3.0 | 0.03 | 0.13 | 0.07 | 96 | 1013.7 |
| 20260505101029 | 47 | 287 | 0.0 | 3.0 | 0.02 | 0.12 | 0.06 | 96 | 1013.7 |
| 20260505100529 | 47 | 275 | 0.0 | 3.0 | 0.02 | 0.12 | 0.06 | 96 | 1013.6 |
| 20260505100037 | 47 | 0 | 0.0 | 2.0 | 0.02 | 0.12 | 0.06 | 96 | 1013.7 |
| 20260505095530 | 47 | 0 | 0.0 | 1.0 | 0.02 | 0.12 | 0.06 | 96 | 1013.7 |
| 20260505095030 | 47 | 0 | 0.0 | 2.0 | 0.02 | 0.12 | 0.06 | 96 | 1013.8 |
| 20260505094543 | 48 | 0 | 0.0 | 2.0 | 0.02 | 0.11 | 0.05 | 96 | 1013.8 |
| 20260505094029 | 47 | 0 | 0.0 | 2.0 | 0.02 | 0.11 | 0.05 | 96 | 1013.8 |
| 20260505093530 | 47 | 0 | 0.0 | 3.0 | 0.02 | 0.11 | 0.05 | 96 | 1013.8 |
| 20260505093042 | 47 | 251 | 0.0 | 3.0 | 0.02 | 0.11 | 0.05 | 96 | 1013.9 |
| 20260505092530 | 47 | 283 | 1.0 | 3.0 | 0.03 | 0.11 | 0.05 | 96 | 1013.8 |
| 20260505092030 | 48 | 277 | 1.0 | 2.0 | 0.03 | 0.11 | 0.05 | 96 | 1013.9 |
| 20260505091552 | 48 | 257 | 0.0 | 2.0 | 0.02 | 0.10 | 0.04 | 96 | 1014.1 |
| 20260505091030 | 48 | 269 | 0.0 | 2.0 | 0.02 | 0.10 | 0.04 | 96 | 1014.0 |
| 20260505090529 | 48 | 0 | 0.0 | 1.0 | 0.02 | 0.10 | 0.04 | 96 | 1014.1 |
| 20260505090041 | 48 | 0 | 0.0 | 1.0 | 0.03 | 0.10 | 0.04 | 96 | 1014.2 |
| 20260505085530 | 48 | 0 | 0.0 | 1.0 | 0.03 | 0.10 | 0.04 | 96 | 1014.2 |
| 20260505085030 | 48 | 0 | 0.0 | 1.0 | 0.03 | 0.10 | 0.04 | 96 | 1014.3 |
| 20260505084542 | 48 | 0 | 0.0 | 1.0 | 0.02 | 0.09 | 0.03 | 96 | 1014.3 |
| 20260505084029 | 48 | 243 | 0.0 | 1.0 | 0.02 | 0.09 | 0.03 | 96 | 1014.4 |
| 20260505083533 | 48 | 0 | 0.0 | 2.0 | 0.02 | 0.09 | 0.03 | 96 | 1014.4 |
| 20260505083044 | 48 | 0 | 0.0 | 2.0 | 0.03 | 0.09 | 0.03 | 96 | 1014.5 |
| 20260505082530 | 48 | 0 | 0.0 | 2.0 | 0.02 | 0.08 | 0.02 | 96 | 1014.6 |
| 20260505082031 | 48 | 0 | 0.0 | 2.0 | 0.02 | 0.08 | 0.02 | 96 | 1014.6 |
| 20260505081539 | 48 | 0 | 0.0 | 1.0 | 0.02 | 0.08 | 0.02 | 96 | 1014.6 |
| 20260505081032 | 48 | 0 | 0.0 | 2.0 | 0.02 | 0.08 | 0.02 | 96 | 1014.6 |
| 20260505080533 | 48 | 263 | 0.0 | 2.0 | 0.02 | 0.08 | 0.02 | 96 | 1014.6 |
| 20260505080038 | 47 | 0 | 0.0 | 1.0 | 0.01 | 0.07 | 0.01 | 96 | 1014.6 |
| 20260505075529 | 48 | 0 | 0.0 | 1.0 | 0.01 | 0.07 | 0.01 | 96 | 1014.5 |
| 20260505075029 | 47 | 0 | 0.0 | 1.0 | 0.01 | 0.07 | 0.01 | 96 | 1014.4 |
| 20260505074540 | 48 | 0 | 0.0 | 1.0 | 0.01 | 0.07 | 0.01 | 96 | 1014.3 |
| 20260505074027 | 48 | 0 | 0.0 | 0.0 | 0.01 | 0.07 | 0.01 | 96 | 1014.2 |
| 20260505073529 | 47 | 0 | 0.0 | 0.0 | 0.01 | 0.07 | 0.01 | 96 | 1014.4 |
| 20260505073037 | 48 | 0 | 0.0 | 0.0 | 0.00 | 0.06 | 0.00 | 96 | 1014.5 |
| 20260505072531 | 47 | 0 | 0.0 | 0.0 | 0.00 | 0.06 | 0.00 | 96 | 1014.5 |
| 20260505072030 | 47 | 0 | 0.0 | 1.0 | 0.01 | 0.06 | 0.00 | 96 | 1014.6 |
| 20260505071535 | 47 | 0 | 0.0 | 1.0 | 0.01 | 0.06 | 0.00 | 96 | 1014.5 |
| 20260505071030 | 47 | 0 | 0.0 | 1.0 | 0.01 | 0.06 | 0.00 | 96 | 1014.5 |
| 20260505070533 | 47 | 0 | 0.0 | 1.0 | 0.01 | 0.06 | 0.00 | 96 | 1014.5 |
| 20260505070033 | 47 | 0 | 0.0 | 2.0 | 0.01 | 0.06 | 0.00 | 96 | 1014.5 |
| 20260505065529 | 47 | 0 | 0.0 | 2.0 | 0.01 | 0.06 | 0.06 | 96 | 1014.5 |
| 20260505065028 | 47 | 227 | 0.0 | 2.0 | 0.01 | 0.06 | 0.06 | 96 | 1014.8 |
| 20260505064603 | 47 | 0 | 0.0 | 0.0 | 0.01 | 0.06 | 0.06 | 96 | 1014.6 |
| 20260505064029 | 47 | 0 | 0.0 | 0.0 | 0.01 | 0.06 | 0.06 | 96 | 1014.4 |
| 20260505063528 | 47 | 0 | 0.0 | 0.0 | 0.01 | 0.06 | 0.06 | 96 | 1014.5 |
| 20260505063038 | 47 | 0 | 0.0 | 0.0 | 0.01 | 0.06 | 0.06 | 95 | 1014.3 |
| 20260505062530 | 47 | 0 | 0.0 | 0.0 | 0.00 | 0.05 | 0.05 | 95 | 1014.7 |
| 20260505062031 | 47 | 0 | 0.0 | 2.0 | 0.00 | 0.05 | 0.05 | 95 | 1014.7 |
| 20260505061539 | 47 | 0 | 0.0 | 2.0 | 0.00 | 0.05 | 0.05 | 95 | 1014.6 |
| 20260505061031 | 47 | 0 | 0.0 | 2.0 | 0.00 | 0.05 | 0.05 | 95 | 1014.9 |
| 20260505060529 | 47 | 0 | 0.0 | 2.0 | 0.00 | 0.05 | 0.05 | 95 | 1014.8 |
| 20260505060038 | 47 | 211 | 1.0 | 2.0 | 0.00 | 0.05 | 0.05 | 95 | 1015.0 |
| 20260505055528 | 47 | 0 | 0.0 | 1.0 | 0.00 | 0.05 | 0.05 | 95 | 1014.5 |
| 20260505055029 | 47 | 0 | 0.0 | 1.0 | 0.00 | 0.05 | 0.05 | 95 | 1014.7 |
| 20260505054546 | 47 | 0 | 0.0 | 1.0 | 0.00 | 0.05 | 0.05 | 95 | 1014.7 |
| 20260505054029 | 47 | 0 | 0.0 | 0.0 | 0.00 | 0.05 | 0.05 | 95 | 1014.7 |
| 20260505053529 | 47 | 0 | 0.0 | 2.0 | 0.00 | 0.05 | 0.05 | 95 | 1014.7 |
| 20260505053043 | 47 | 0 | 0.0 | 2.0 | 0.01 | 0.05 | 0.05 | 95 | 1014.6 |
| 20260505052529 | 47 | 211 | 0.0 | 3.0 | 0.01 | 0.05 | 0.05 | 95 | 1014.8 |
| 20260505052030 | 47 | 0 | 0.0 | 3.0 | 0.01 | 0.05 | 0.05 | 95 | 1014.9 |
| 20260505051541 | 47 | 209 | 0.0 | 2.0 | 0.01 | 0.05 | 0.05 | 95 | 1014.8 |
| 20260505051028 | 47 | 0 | 0.0 | 2.0 | 0.01 | 0.05 | 0.05 | 95 | 1014.9 |
| 20260505050529 | 47 | 0 | 0.0 | 1.0 | 0.01 | 0.05 | 0.05 | 95 | 1014.6 |
| 20260505041542 | 48 | 0 | 0.0 | 1.0 | 0.00 | 0.04 | 0.04 | 95 | 1015.0 |
| 20260505041030 | 48 | 0 | 0.0 | 1.0 | 0.00 | 0.04 | 0.04 | 95 | 1015.0 |
| 20260505040530 | 48 | 0 | 0.0 | 1.0 | 0.00 | 0.04 | 0.04 | 95 | 1014.9 |
| 20260505040040 | 48 | 0 | 0.0 | 1.0 | 0.00 | 0.04 | 0.04 | 95 | 1014.8 |
| 20260505035529 | 48 | 0 | 0.0 | 1.0 | 0.00 | 0.04 | 0.04 | 95 | 1014.8 |
| 20260505035029 | 47 | 0 | 0.0 | 1.0 | 0.00 | 0.04 | 0.04 | 95 | 1014.7 |
| 20260505034552 | 48 | 0 | 0.0 | 1.0 | 0.00 | 0.04 | 0.04 | 95 | 1014.7 |
| 20260505034030 | 48 | 0 | 0.0 | 2.0 | 0.00 | 0.04 | 0.04 | 95 | 1014.9 |
| 20260505033527 | 48 | 0 | 0.0 | 2.0 | 0.00 | 0.04 | 0.04 | 95 | 1014.9 |
| 20260505033034 | 48 | 208 | 0.0 | 2.0 | 0.00 | 0.04 | 0.04 | 95 | 1014.9 |
| 20260505032529 | 48 | 208 | 0.0 | 2.0 | 0.00 | 0.04 | 0.04 | 95 | 1015.2 |
| 20260505032029 | 48 | 0 | 0.0 | 2.0 | 0.00 | 0.04 | 0.04 | 95 | 1015.1 |
| 20260505031533 | 48 | 229 | 0.0 | 2.0 | 0.01 | 0.04 | 0.04 | 95 | 1015.1 |
| 20260505031026 | 48 | 229 | 0.0 | 2.0 | 0.01 | 0.04 | 0.04 | 95 | 1015.0 |
| 20260505030532 | 48 | 0 | 0.0 | 1.0 | 0.01 | 0.04 | 0.04 | 95 | 1014.8 |
| 20260505030047 | 48 | 0 | 0.0 | 2.0 | 0.01 | 0.04 | 0.04 | 95 | 1014.9 |
| 20260505025531 | 48 | 0 | 0.0 | 3.0 | 0.01 | 0.04 | 0.04 | 95 | 1015.1 |
| 20260505025030 | 48 | 0 | 1.0 | 4.0 | 0.01 | 0.04 | 0.04 | 95 | 1015.2 |
| 20260505024537 | 48 | 0 | 1.0 | 4.0 | 0.01 | 0.04 | 0.04 | 95 | 1015.5 |
| 20260505024029 | 48 | 229 | 1.0 | 4.0 | 0.01 | 0.04 | 0.04 | 95 | 1015.5 |
| 20260505023529 | 48 | 236 | 0.0 | 3.0 | 0.01 | 0.04 | 0.04 | 95 | 1015.5 |
| 20260505023043 | 48 | 229 | 1.0 | 3.0 | 0.01 | 0.04 | 0.04 | 95 | 1015.2 |
| 20260505022529 | 48 | 0 | 0.0 | 2.0 | 0.01 | 0.04 | 0.04 | 95 | 1014.7 |
| 20260505022030 | 48 | 238 | 0.0 | 2.0 | 0.00 | 0.03 | 0.03 | 95 | 1014.8 |
| 20260505021536 | 48 | 233 | 0.0 | 2.0 | 0.00 | 0.03 | 0.03 | 95 | 1014.8 |
| 20260505021029 | 48 | 0 | 0.0 | 4.0 | 0.00 | 0.03 | 0.03 | 94 | 1014.6 |
| 20260505020529 | 48 | 259 | 1.0 | 4.0 | 0.00 | 0.03 | 0.03 | 94 | 1014.4 |
| 20260505020049 | 48 | 269 | 1.0 | 3.0 | 0.00 | 0.03 | 0.03 | 94 | 1014.0 |
| 20260505015529 | 48 | 0 | 0.0 | 4.0 | 0.00 | 0.03 | 0.03 | 94 | 1014.0 |
| 20260505015029 | 48 | 244 | 1.0 | 5.0 | 0.00 | 0.03 | 0.03 | 94 | 1013.9 |
| 20260505014544 | 48 | 0 | 1.0 | 5.0 | 0.00 | 0.03 | 0.03 | 94 | 1013.9 |
| 20260505014029 | 49 | 287 | 0.0 | 2.0 | 0.00 | 0.03 | 0.03 | 94 | 1014.2 |
| 20260505013530 | 49 | 283 | 0.0 | 3.0 | 0.00 | 0.03 | 0.03 | 94 | 1014.5 |
| 20260505013043 | 49 | 249 | 0.0 | 3.0 | 0.00 | 0.03 | 0.03 | 94 | 1014.6 |
| 20260505012529 | 49 | 0 | 0.0 | 2.0 | 0.00 | 0.03 | 0.03 | 94 | 1014.6 |
| 20260505012028 | 49 | 270 | 0.0 | 2.0 | 0.00 | 0.03 | 0.03 | 95 | 1014.7 |
| 20260505011540 | 49 | 0 | 0.0 | 1.0 | 0.00 | 0.03 | 0.03 | 95 | 1014.7 |
| 20260505011029 | 49 | 0 | 0.0 | 1.0 | 0.00 | 0.03 | 0.03 | 95 | 1014.6 |
| 20260505010529 | 49 | 0 | 0.0 | 1.0 | 0.00 | 0.03 | 0.03 | 94 | 1014.6 |
| 20260505010045 | 49 | 0 | 0.0 | 1.0 | 0.00 | 0.03 | 0.03 | 94 | 1014.4 |
| 20260505005529 | 49 | 0 | 0.0 | 4.0 | 0.00 | 0.03 | 0.03 | 94 | 1014.5 |
| 20260505005030 | 49 | 0 | 0.0 | 4.0 | 0.00 | 0.03 | 0.03 | 94 | 1014.7 |
| 20260505004556 | 49 | 249 | 2.0 | 4.0 | 0.00 | 0.03 | 0.03 | 94 | 1014.5 |
| 20260505004031 | 49 | 0 | 0.0 | 4.0 | 0.00 | 0.03 | 0.03 | 95 | 1014.5 |
| 20260505003534 | 49 | 331 | 0.0 | 4.0 | 0.01 | 0.03 | 0.03 | 94 | 1014.7 |
| 20260505003036 | 49 | 0 | 0.0 | 2.0 | 0.01 | 0.03 | 0.03 | 94 | 1014.8 |
| 20260505002529 | 49 | 281 | 0.0 | 2.0 | 0.01 | 0.03 | 0.03 | 94 | 1015.0 |
| 20260505002031 | 49 | 0 | 0.0 | 2.0 | 0.01 | 0.03 | 0.03 | 94 | 1015.2 |
| 20260505001545 | 49 | 0 | 0.0 | 2.0 | 0.01 | 0.03 | 0.03 | 95 | 1015.1 |
| 20260505001032 | 49 | 288 | 0.0 | 3.0 | 0.01 | 0.03 | 0.03 | 94 | 1015.0 |
| 20260505000531 | 49 | 0 | 0.0 | 3.0 | 0.01 | 0.03 | 0.03 | 94 | 1014.8 |
| 20260505000044 | 49 | 0 | 0.0 | 4.0 | 0.01 | 0.03 | 0.03 | 94 | 1014.7 |
| 20260504235531 | 49 | 308 | 1.0 | 4.0 | 0.01 | 0.03 | 0.03 | 94 | 1014.8 |
| 20260504235032 | 49 | 240 | 0.0 | 5.0 | 0.01 | 0.03 | 0.03 | 94 | 1014.9 |
| 20260504234542 | 49 | 316 | 1.0 | 5.0 | 0.01 | 0.03 | 0.03 | 94 | 1015.1 |
| 20260504234031 | 50 | 313 | 1.0 | 4.0 | 0.00 | 0.02 | 0.02 | 94 | 1015.0 |
| 20260504233530 | 50 | 296 | 1.0 | 4.0 | 0.01 | 0.02 | 0.02 | 94 | 1014.9 |
| 20260504233039 | 50 | 335 | 1.0 | 4.0 | 0.01 | 0.02 | 0.02 | 94 | 1014.9 |
| 20260504232532 | 50 | 304 | 2.0 | 4.0 | 0.01 | 0.02 | 0.02 | 94 | 1014.7 |
| 20260504232031 | 50 | 329 | 1.0 | 4.0 | 0.01 | 0.02 | 0.02 | 94 | 1014.7 |
| 20260504231540 | 50 | 322 | 1.0 | 4.0 | 0.01 | 0.02 | 0.02 | 94 | 1014.7 |
| 20260504231031 | 50 | 5 | 1.0 | 4.0 | 0.01 | 0.02 | 0.02 | 94 | 1014.5 |
| 20260504230533 | 49 | 342 | 1.0 | 5.0 | 0.01 | 0.02 | 0.02 | 93 | 1014.9 |
| 20260504230045 | 50 | 0 | 1.0 | 5.0 | 0.01 | 0.02 | 0.02 | 94 | 1015.4 |
| 20260504225531 | 50 | 0 | 0.0 | 3.0 | 0.01 | 0.02 | 0.02 | 94 | 1015.6 |
| 20260504225030 | 50 | 0 | 0.0 | 4.0 | 0.01 | 0.02 | 0.02 | 94 | 1015.4 |
| 20260504224542 | 50 | 348 | 1.0 | 4.0 | 0.01 | 0.02 | 0.02 | 93 | 1015.0 |
| 20260504224034 | 50 | 25 | 1.0 | 4.0 | 0.01 | 0.02 | 0.02 | 94 | 1014.9 |
| 20260504223531 | 50 | 346 | 2.0 | 4.0 | 0.00 | 0.01 | 0.01 | 93 | 1015.0 |
| 20260504223040 | 50 | 350 | 1.0 | 4.0 | 0.00 | 0.01 | 0.01 | 93 | 1014.9 |
| 20260504222532 | 50 | 336 | 1.0 | 4.0 | 0.00 | 0.01 | 0.01 | 93 | 1015.0 |
| 20260504222035 | 50 | 333 | 1.0 | 4.0 | 0.01 | 0.01 | 0.01 | 93 | 1014.8 |
| 20260504221556 | 50 | 0 | 0.0 | 3.0 | 0.01 | 0.01 | 0.01 | 94 | 1015.1 |
| 20260504221029 | 49 | 0 | 0.0 | 4.0 | 0.01 | 0.01 | 0.01 | 93 | 1015.2 |
| 20260504220530 | 49 | 329 | 1.0 | 4.0 | 0.01 | 0.01 | 0.01 | 93 | 1015.2 |
| 20260504220038 | 49 | 329 | 1.0 | 3.0 | 0.01 | 0.01 | 0.01 | 92 | 1015.1 |
| 20260504215531 | 49 | 329 | 0.0 | 3.0 | 0.01 | 0.01 | 0.01 | 92 | 1015.2 |
| 20260504215032 | 50 | 0 | 0.0 | 4.0 | 0.01 | 0.01 | 0.01 | 93 | 1015.2 |
| 20260504214538 | 49 | 0 | 0.0 | 4.0 | 0.01 | 0.01 | 0.01 | 92 | 1015.1 |
| 20260504214029 | 50 | 325 | 1.0 | 4.0 | 0.01 | 0.01 | 0.01 | 92 | 1015.0 |
| 20260504213529 | 50 | 323 | 1.0 | 4.0 | 0.01 | 0.01 | 0.01 | 92 | 1015.1 |
| 20260504213045 | 50 | 325 | 1.0 | 4.0 | 0.01 | 0.01 | 0.01 | 92 | 1015.2 |
| 20260504212529 | 50 | 0 | 1.0 | 4.0 | 0.01 | 0.01 | 0.01 | 91 | 1015.1 |
| 20260504212027 | 50 | 321 | 1.0 | 4.0 | 0.00 | 0.00 | 0.00 | 91 | 1015.0 |
| 20260504211546 | 50 | 324 | 0.0 | 2.0 | 0.00 | 0.00 | 0.00 | 91 | 1015.4 |
| 20260504211029 | 50 | 0 | 0.0 | 2.0 | 0.00 | 0.00 | 0.00 | 91 | 1015.6 |
| 20260504210530 | 50 | 352 | 0.0 | 2.0 | 0.00 | 0.00 | 0.00 | 91 | 1015.4 |
| 20260504210046 | 50 | 0 | 0.0 | 3.0 | 0.00 | 0.00 | 0.00 | 90 | 1015.3 |
| 20260504205529 | 50 | 0 | 0.0 | 3.0 | 0.00 | 0.00 | 0.00 | 90 | 1015.3 |
| 20260504205031 | 50 | 0 | 0.0 | 2.0 | 0.00 | 0.00 | 0.00 | 90 | 1015.3 |
| 20260504204539 | 50 | 0 | 0.0 | 2.0 | 0.00 | 0.00 | 0.00 | 90 | 1015.2 |
| 20260504204029 | 50 | 0 | 0.0 | 1.0 | 0.00 | 0.00 | 0.00 | 90 | 1015.2 |
| 20260504203529 | 50 | 0 | 0.0 | 1.0 | 0.00 | 0.00 | 0.00 | 89 | 1015.1 |
| 20260504203038 | 50 | 0 | 0.0 | 1.0 | 0.00 | 0.00 | 0.00 | 87 | 1015.0 |
| 20260504202529 | 50 | 0 | 0.0 | 2.0 | 0.00 | 0.00 | 0.00 | 87 | 1015.2 |
| 20260504202027 | 50 | 0 | 0.0 | 2.0 | 0.00 | 0.00 | 0.00 | 86 | 1015.2 |
| 20260504201536 | 51 | 0 | 0.0 | 3.0 | 0.00 | 0.00 | 0.00 | 85 | 1015.1 |
| 20260504201029 | 51 | 352 | 1.0 | 4.0 | 0.00 | 0.00 | 0.00 | 84 | 1014.9 |
| 20260504200529 | 51 | 360 | 1.0 | 5.0 | 0.00 | 0.00 | 0.00 | 85 | 1015.0 |
| 20260504200043 | 51 | 331 | 2.0 | 5.0 | 0.00 | 0.00 | 0.00 | 83 | 1015.1 |
| 20260504195531 | 52 | 341 | 2.0 | 5.0 | 0.00 | 0.00 | 0.00 | 82 | 1015.2 |
| 20260504195028 | 52 | 329 | 0.0 | 4.0 | 0.00 | 0.00 | 0.00 | 82 | 1015.2 |
| 20260504194546 | 52 | 0 | 1.0 | 4.0 | 0.00 | 0.00 | 0.00 | 82 | 1015.2 |
| 20260504194028 | 52 | 339 | 2.0 | 4.0 | 0.00 | 0.00 | 0.00 | 82 | 1015.1 |
| 20260504193531 | 52 | 332 | 1.0 | 4.0 | 0.00 | 0.00 | 0.00 | 82 | 1015.1 |
| 20260504193045 | 52 | 331 | 0.0 | 3.0 | 0.00 | 0.00 | 0.00 | 82 | 1015.1 |
| 20260504192529 | 52 | 327 | 1.0 | 4.0 | 0.00 | 0.00 | 0.00 | 81 | 1015.2 |
| 20260504192030 | 52 | 327 | 1.0 | 5.0 | 0.00 | 0.00 | 0.00 | 80 | 1015.4 |
| 20260504191605 | 52 | 329 | 2.0 | 5.0 | 0.00 | 0.00 | 0.00 | 80 | 1015.5 |
| 20260504191029 | 52 | 333 | 1.0 | 5.0 | 0.00 | 0.00 | 0.00 | 80 | 1015.5 |
| 20260504190529 | 52 | 317 | 1.0 | 5.0 | 0.00 | 0.00 | 0.00 | 79 | 1015.5 |
| 20260504190039 | 52 | 336 | 2.0 | 5.0 | 0.00 | 0.00 | 0.00 | 80 | 1015.4 |
| 20260504185527 | 52 | 313 | 2.0 | 6.0 | 0.00 | 0.00 | 0.00 | 79 | 1015.5 |
| 20260504185029 | 52 | 21 | 2.0 | 8.0 | 0.00 | 0.00 | 0.00 | 81 | 1015.4 |
| 20260504184543 | 52 | 360 | 3.0 | 8.0 | 0.00 | 0.00 | 0.00 | 81 | 1015.4 |
| 20260504184029 | 52 | 22 | 4.0 | 8.0 | 0.00 | 0.00 | 0.00 | 84 | 1015.4 |
| 20260504183529 | 52 | 342 | 4.0 | 8.0 | 0.00 | 0.00 | 0.00 | 85 | 1015.3 |
| 20260504183040 | 52 | 352 | 2.0 | 9.0 | 0.00 | 0.00 | 0.00 | 85 | 1015.3 |
| 20260504182532 | 53 | 9 | 4.0 | 9.0 | 0.00 | 0.00 | 0.00 | 84 | 1015.3 |
| 20260504182029 | 53 | 24 | 3.0 | 6.0 | 0.00 | 0.00 | 0.00 | 81 | 1015.3 |
| 20260504181538 | 54 | 5 | 3.0 | 6.0 | 0.00 | 0.00 | 0.00 | 81 | 1015.3 |
| 20260504181029 | 54 | 33 | 3.0 | 6.0 | 0.00 | 0.00 | 0.00 | 80 | 1015.2 |
| 20260504180528 | 54 | 325 | 2.0 | 4.0 | 0.00 | 0.00 | 0.00 | 78 | 1015.2 |
| 20260504180038 | 54 | 341 | 2.0 | 5.0 | 0.00 | 0.00 | 0.00 | 77 | 1015.1 |
| 20260504175527 | 54 | 342 | 2.0 | 5.0 | 0.00 | 0.00 | 0.00 | 77 | 1014.9 |
| 20260504175031 | 53 | 336 | 0.0 | 4.0 | 0.00 | 0.00 | 0.00 | 77 | 1015.0 |
| 20260504174545 | 53 | 0 | 0.0 | 4.0 | 0.00 | 0.00 | 0.00 | 78 | 1014.9 |
| 20260504174031 | 53 | 0 | 1.0 | 4.0 | 0.00 | 0.00 | 0.00 | 78 | 1014.9 |
| 20260504173530 | 53 | 344 | 0.0 | 4.0 | 0.00 | 0.00 | 0.00 | 79 | 1014.9 |
| 20260504173044 | 53 | 352 | 1.0 | 5.0 | 0.00 | 0.00 | 0.00 | 79 | 1015.0 |
| 20260504172534 | 52 | 334 | 2.0 | 6.0 | 0.00 | 0.00 | 0.00 | 79 | 1015.0 |
| 20260504172031 | 52 | 318 | 2.0 | 6.0 | 0.00 | 0.00 | 0.00 | 79 | 1014.9 |
| 20260504171543 | 52 | 336 | 2.0 | 8.0 | 0.00 | 0.00 | 0.00 | 79 | 1014.8 |
| 20260504171032 | 52 | 344 | 3.0 | 8.0 | 0.00 | 0.00 | 0.00 | 80 | 1014.7 |
| 20260504170531 | 52 | 325 | 2.0 | 8.0 | 0.00 | 0.00 | 0.00 | 79 | 1014.8 |
| 20260504151031 | 51 | 0 | 1.0 | 4.0 | 0.00 | 0.00 | 0.00 | 84 | 1014.4 |
| 20260504150533 | 51 | 295 | 1.0 | 5.0 | 0.00 | 0.00 | 0.00 | 85 | 1014.3 |
| 20260504141033 | 49 | 0 | 0.0 | 2.0 | 0.00 | 0.00 | 0.00 | 87 | 1014.3 |
| 20260504140532 | 49 | 0 | 0.0 | 3.0 | 0.00 | 0.00 | 0.00 | 87 | 1014.3 |
| 20260504130532 | 49 | 314 | 2.0 | 5.0 | 0.00 | 0.00 | 0.00 | 87 | 1013.5 |